Home   Weather   Moers   Past weeks

Flag for Germany Past Weather in Moers, North Rhine-Westphalia, Germany — Yesterday and Last 2 Weeks

Now
70 °F

Broken clouds.


Feels Like: 70 °F
Forecast: 57 / 71 °F
Wind: 8 mph from Southwest

Location: Duesseldorf

Current Time: Jul 27, 2017 at 6:58:07 pm

Latest Report: Jul 27, 2017 at 6:20 pm


Visibility: N/A

Pressure: 29.74 "Hg

Humidity: 57%

Dew Point: 54 °F

Location of MoersLocation

Past Weather in Moers — Graph

°F

Moers Temperature Yesterday

Maximum temperature yesterday: 73 °F (at 5:50 pm)
Minimum temperature yesterday: 59 °F (at 6:50 am)
Average temperature yesterday: 66 °F

High & Low Weather Summary for the Past Weeks

 TemperatureHumidityPressure
High90 °F (Jul 19, 1:50 pm)100% (Jul 13, 3:20 am)30.24 "Hg (Jul 13, 3:20 am)
Low46 °F (Jul 13, 4:20 am)37% (Jul 18, 3:50 pm)29.74 "Hg (Jul 20, 3:20 am)
Average66 °F72%29.96 "Hg
* Reported Jul 12 5:20 pm — Jul 27 5:50 pm, Moers. Weather by CustomWeather, © 2017

Note: Actual official high and low records may vary slightly from our data, if they occured in-between our weather recording intervals... More about our weather records

Advertising

Moers Weather History for the Previous 24 Hours

Scroll right to see more
 ConditionsComfort  
Time TempWeatherWind HumidityBarometerVisibility
5:50 pm
Thu, Jul 27
68 °FPartly sunny.9 mph60%29.74 "HgN/A
5:20 pm70 °FPartly sunny.9 mph57%29.74 "HgN/A
4:50 pm70 °FPartly sunny.10 mph57%29.74 "HgN/A
4:20 pm68 °FPartly sunny.9 mph56%29.74 "HgN/A
3:50 pm68 °FPartly sunny.12 mph60%29.77 "HgN/A
3:20 pm70 °FPartly sunny.12 mph57%29.74 "HgN/A
2:50 pm68 °FPartly sunny.9 mph60%29.77 "HgN/A
2:20 pm68 °FPartly sunny.13 mph60%29.77 "HgN/A
1:50 pm68 °FPartly sunny.13 mph60%29.77 "HgN/A
1:20 pm68 °FPartly sunny.16 mph60%29.77 "HgN/A
12:50 pm68 °FPartly sunny.10 mph69%29.77 "HgN/A
12:20 pm66 °FBroken clouds.13 mph68%29.77 "HgN/A
11:50 am68 °FBroken clouds.15 mph69%29.77 "HgN/A
11:20 am66 °FBroken clouds.16 mph73%29.77 "HgN/A
10:50 am66 °FPartly sunny.15 mph73%29.77 "HgN/A
10:20 am66 °FPartly sunny.17 mph83%29.77 "HgN/A
9:50 am66 °FBroken clouds.9 mph83%29.77 "HgN/A
9:20 am64 °FPartly sunny.10 mph88%29.77 "HgN/A
8:50 am64 °FPartly sunny.12 mph88%29.74 "HgN/A
8:20 am66 °FBroken clouds.13 mph83%29.74 "HgN/A
7:50 am64 °FBroken clouds.13 mph94%29.74 "HgN/A
7:20 am64 °FSprinkles. Partly sunny.9 mph94%29.74 "HgN/A
6:50 am64 °FSprinkles. Partly sunny.8 mph94%29.74 "HgN/A
6:20 am64 °FBroken clouds.9 mph94%29.74 "HgN/A
5:50 am63 °FBroken clouds.7 mph100%29.74 "HgN/A
5:20 am64 °FPartly cloudy.10 mph94%29.74 "HgN/A
4:50 am63 °FPartly cloudy.12 mph100%29.74 "Hg2 mi
4:32 am64 °FPassing clouds.9 mph94%29.74 "Hg3 mi
4:20 am64 °FPassing clouds.8 mph94%29.74 "HgN/A
3:50 am64 °FPartly cloudy.10 mph94%29.74 "HgN/A
3:20 am63 °FPartly cloudy.9 mph100%29.77 "Hg4 mi
2:50 am64 °FPassing clouds.15 mph88%29.77 "Hg4 mi
2:20 am66 °FPartly cloudy.12 mph78%29.77 "HgN/A
1:50 am66 °FPartly cloudy.9 mph78%29.77 "HgN/A
1:20 am66 °FPartly cloudy.10 mph78%29.77 "HgN/A
12:50 am68 °FLight rain. Partly cloudy.13 mph73%29.77 "HgN/A
12:20 am70 °FLight rain. Partly cloudy.13 mph64%29.77 "HgN/A
11:50 pm
Wed, Jul 26
70 °FPassing clouds.10 mph64%29.77 "HgN/A
11:20 pm70 °FPassing clouds.8 mph60%29.77 "HgN/A
10:50 pm70 °FClear.8 mph60%29.77 "Hg10 mi
10:20 pm70 °FPassing clouds.8 mph60%29.77 "HgN/A
9:50 pm70 °FPassing clouds.7 mph57%29.77 "HgN/A
8:50 pm70 °FSunny.7 mph57%29.77 "Hg10 mi
8:20 pm70 °FSunny.3 mph60%29.77 "Hg10 mi
7:50 pm72 °FSunny.5 mph53%29.77 "Hg10 mi
7:20 pm72 °FPassing clouds.6 mph53%29.80 "HgN/A
6:50 pm72 °FSunny.7 mph53%29.80 "Hg10 mi
6:20 pm72 °FSunny.10 mph50%29.80 "Hg10 mi
Weather by CustomWeather, © 2017

See weather overviewHow to use our weather pages